COSMOS 252 DEB *, 3686

Orbit data source: Space-Track

COSMOS 252 DEB *, 3686 is space debris in LEO originally from a launch on Fri, 01 Nov 1968 UTC launched from the Tyuratam Missile And Space Complex (TTMTR). Debris objects in space refer to the collection of defunct objects orbiting the Earth. Examples of debris include non-operational satellites, rocket bodies, and fragments generated from explosions, collisions, or faulty payload assembly.

Loading next visibility...
Identifier
3686, 1968-097AD
Orbit
LEO
Country
Flag of CISCIS
Related business
Manufacturer
Unknown
Mission
Spacecraft
Bus & Motor
Unknown
Mass
Unknown
Launch date (UTC)
1968-11-01 (58 years ago)
Launch vehicle
Unknown
Launch site
Tyuratam Missile And Space Complex (TTMTR)
Object type
Payload
Rocket body
Debris
Shape & HBR
Unknown shape, 0.1 m
Radar Cross Section
Medium (>0.1 m² and <1 m²)

Expand to show TLE details & history
Last TLE update: 13 hours ago

TLE from 13 hours ago
0 COSMOS 252 DEB *
1 03686U 68097AD  26208.44485161  .00003533  00000-0  33021-2 0  9999
2 03686  62.2642 358.7156 0628720 179.7730 180.3683 13.18042559702074
Epoch: 2026-07-27T10:40Z
TLE epoch observation values (Epoch: 2026-07-27T10:40:35.179Z)
Latitude
0.00003°
Longitude
-106.5593°
Altitude
1,669.846 km
Speed
6.815 km/s
True Right ascension
23h 54m 51s
True Declination
0° 00' 00"
Sunlit
Object was in daylight at epoch
Visualization orbit readout
Latitude
Unknown
Longitude
Unknown
Altitude
Unknown
Speed
Unknown
Apparent Right ascension
Unknown
Apparent Declination
Unknown
Sunlit
N/A
Visualization observer readout
Local Sidereal Time
13:23:25
Azimuth
Unknown
Elevation
Unknown
Doppler factor
Unknown
Orbital elements
Apogee altitude
1,667.084 km
Perigee altitude
715.287 km
Semi-major axis
7,569.323 km
Eccentricity
0.06287
Inclination
62.2642°
RAAN
358.7156°
Arg. of periapsis
179.773°
True anomaly
180.32537°
Mean anomaly
180.3683°
Eccentric anomaly
180.34651°
Mean motion
3.29578 °/min
Orbital period
109.23 mins
BSTAR
0.0033021
Loading maneuver chart data...
Computing Atmospheric mass density...
Loading historical data...
Loading historical data...
Loading historical data...
Loading historical data...
Loading historical data...
Loading historical data...
Loading historical data...

Documentation

Showing up to 5 results
|